GW1675 Weather Reports


time (UTC)temp
C
wind
direction
speed
KPH
gust
KPH
rain 1hr
cm
rain 24hr
cm
rain mn
cm
humidity
%
barometer
mb
20260906224607 31 121 9.7 20.9 0.00 0.00 0.00 65 1021.2
20260906223103 31 123 9.7 16.1 0.00 0.00 0.00 65 1021.0
20260906221555 31 123 4.8 12.9 0.00 0.00 0.00 65 1021.1
20260906220051 31 123 4.8 14.5 0.00 0.00 0.00 65 1021.1
20260906214559 31 123 8.0 16.1 0.00 0.00 0.00 65 1021.1
20260906213057 31 123 6.4 11.3 0.00 0.00 0.00 65 1021.0
20260906211554 32 123 6.4 16.1 0.00 0.00 0.00 65 1021.3
20260906210100 31 123 6.4 12.9 0.00 0.00 0.00 65 1021.3
20260906204607 31 123 4.8 9.7 0.00 0.00 0.00 65 1021.1
20260906203052 31 124 4.8 11.3 0.00 0.00 0.00 65 1021.1
20260906201612 31 123 6.4 12.9 0.00 0.00 0.00 66 1020.8
20260906200054 32 124 6.4 14.5 0.00 0.00 0.00 66 1020.5
20260906194549 31 124 8.0 16.1 0.00 0.00 0.00 66 1020.3
20260906193059 30 123 3.2 8.0 0.00 0.00 0.00 66 1020.2
20260906191557 31 124 3.2 8.0 0.00 0.00 0.00 66 1020.1
20260906190107 31 123 3.2 11.3 0.00 0.00 0.00 66 1019.8
20260906184602 32 123 6.4 11.3 0.00 0.00 0.00 66 1019.7
20260906183110 32 123 6.4 11.3 0.00 0.00 0.00 66 1019.7
20260906181558 33 123 4.8 9.7 0.00 0.00 0.00 67 1019.8
20260906180110 33 123 4.8 12.9 0.00 0.00 0.00 67 1019.6
20260906174558 33 124 6.4 14.5 0.00 0.00 0.00 67 1019.8
20260906173107 33 123 6.4 12.9 0.00 0.00 0.00 67 1019.8
20260906171558 33 124 6.4 14.5 0.00 0.00 0.00 67 1019.8
20260906170115 33 123 4.8 16.1 0.00 0.00 0.00 67 1019.9
20260906164601 33 124 9.7 16.1 0.00 0.00 0.00 67 1019.8
20260906163057 33 123 11.3 19.3 0.00 0.00 0.00 67 1019.9
20260906161554 33 123 11.3 16.1 0.00 0.00 0.00 67 1019.9
20260906154558 32 123 8.0 16.1 0.00 0.00 0.00 68 1020.1
20260906153056 32 123 8.0 20.9 0.00 0.00 0.00 68 1020.3
20260906151608 32 122 11.3 17.7 0.00 0.00 0.00 68 1020.4
20260906150106 32 122 8.0 14.5 0.00 0.00 0.00 68 1020.4
20260906144555 32 122 6.4 19.3 0.00 0.00 0.00 68 1020.5
20260906143124 32 122 9.7 16.1 0.00 0.00 0.00 68 1020.4
20260906141553 32 122 9.7 14.5 0.00 0.00 0.00 68 1020.6
20260906134603 32 122 8.0 16.1 0.00 0.00 0.00 68 1020.8
20260906133103 32 122 8.0 14.5 0.00 0.00 0.00 68 1020.7
20260906131556 32 122 9.7 14.5 0.00 0.00 0.00 68 1020.9
20260906130057 31 122 6.4 16.1 0.00 0.00 0.00 68 1020.9
20260906124552 32 122 8.0 16.1 0.00 0.00 0.00 69 1021.0
20260906123136 31 122 8.0 14.5 0.00 0.00 0.00 69 1020.9
20260906121558 32 122 8.0 12.9 0.00 0.00 0.00 69 1021.0
20260906120057 32 119 4.8 11.3 0.00 0.00 0.00 69 1020.9
20260906114553 32 118 6.4 12.9 0.00 0.00 0.00 69 1021.0
20260906113101 32 119 9.7 14.5 0.00 0.00 0.00 69 1021.0
20260906111559 32 118 9.7 16.1 0.00 0.00 0.00 69 1021.0
20260906110056 32 119 3.2 14.5 0.00 0.00 0.00 69 1021.1
20260906104607 31 118 4.8 14.5 0.00 0.00 0.00 69 1021.2
20260906103059 31 118 8.0 14.5 0.00 0.00 0.00 69 1021.4
20260906101557 31 118 8.0 17.7 0.00 0.00 0.00 69 1021.4
20260906100057 31 118 6.4 14.5 0.00 0.00 0.00 69 1021.4
20260906094607 31 119 8.0 19.3 0.00 0.00 0.00 69 1021.2
20260906093100 32 119 11.3 17.7 0.00 0.00 0.00 70 1021.1
20260906091603 32 119 11.3 19.3 0.00 0.00 0.00 70 1021.1
20260906090101 31 119 12.9 20.9 0.00 0.00 0.00 69 1021.1
20260906084559 31 121 4.8 14.5 0.00 0.00 0.00 69 1021.0
20260906083058 30 121 8.0 11.3 0.00 0.00 0.00 69 1021.0
20260906081558 30 121 4.8 16.1 0.00 0.00 0.00 69 1020.9
20260906080054 29 121 6.4 9.7 0.00 0.00 0.00 69 1020.8
20260906074606 28 121 0.0 3.2 0.00 0.00 0.00 69 1020.7
20260906073058 28 121 0.0 3.2 0.00 0.00 0.00 69 1020.7
20260906071555 27 121 1.6 9.7 0.00 0.00 0.00 68 1020.5
20260906070056 27 121 6.4 14.5 0.00 0.00 0.00 68 1020.4
20260906064559 27 121 6.4 11.3 0.00 0.00 0.00 68 1020.3
20260906063101 27 121 4.8 8.0 0.00 0.00 0.00 68 1020.3
20260906061559 26 121 4.8 9.7 0.00 0.00 0.00 68 1020.2
20260906060055 26 121 3.2 8.0 0.00 0.00 0.00 68 1020.2
20260906054550 26 121 1.6 6.4 0.00 0.00 0.00 68 1020.1
20260906053108 26 0 0.0 1.6 0.00 0.00 0.00 68 1020.0
20260906051600 26 121 0.0 3.2 0.00 0.00 0.00 68 1019.9
20260906050056 26 121 4.8 9.7 0.00 0.00 0.00 68 1019.9
20260906044559 26 121 6.4 11.3 0.00 0.00 0.00 68 1019.7
20260906043102 25 121 8.0 12.9 0.00 0.00 0.00 68 1019.7
20260906041600 25 121 1.6 4.8 0.00 0.00 0.00 67 1019.9
20260906040053 25 121 1.6 6.4 0.00 0.00 0.00 67 1020.0
20260906034606 25 121 4.8 11.3 0.00 0.00 0.00 67 1019.8
20260906033109 25 121 4.8 8.0 0.00 0.00 0.00 67 1019.9
20260906031553 25 121 3.2 11.3 0.00 0.00 0.00 67 1019.9
20260906024601 25 121 8.0 16.1 0.00 0.00 0.00 67 1020.1
20260906023057 25 121 8.0 12.9 0.00 0.00 0.00 67 1020.2
20260906021558 25 121 3.2 9.7 0.00 0.00 0.00 67 1020.2
20260906020110 25 121 4.8 9.7 0.00 0.00 0.00 67 1020.3
20260906014601 25 121 1.6 6.4 0.00 0.00 0.00 67 1020.3
20260906013108 24 121 3.2 9.7 0.00 0.00 0.00 67 1020.5
20260906011606 23 0 0.0 1.6 0.00 0.00 0.00 67 1020.5
20260906010059 23 121 0.0 1.6 0.00 0.00 0.00 67 1020.6
20260906004602 23 0 0.0 1.6 0.00 0.00 0.00 67 1020.9
20260906003103 23 0 0.0 0.0 0.00 0.00 0.00 67 1020.9
20260906001556 24 121 0.0 4.8 0.00 0.00 0.00 67 1021.0
20260906000058 24 0 0.0 3.2 0.00 0.00 0.00 67 1020.8
20260905234600 25 0 0.0 3.2 0.00 0.00 0.00 67 1020.8
20260905233057 25 0 0.0 0.0 0.00 0.00 0.00 67 1021.0
20260905231559 26 121 0.0 1.6 0.00 0.00 0.00 67 1020.7
20260905230058 25 0 0.0 0.0 0.00 0.00 0.00 67 1020.8